[[{"header":{"parameterUnit":"m.s-1","parameterCategory":1,"la1":30.2991,"la2":30.254,"lo1":-89.0895,"lo2":-89.0444,"dy":0.0017,"dx":0.0017,"nx":28,"ny":28,"refTime":"2025-02-09T03:00:00:Z","depth":0,"parameterNumber":2,"parameterNumberName":"U-component_of_WINDS"},"data":[0,0,0,0,0,0,0,0,0,0,0,0,0,0,0,0,0,0,0,0,0,0,0,0,0,0,0,0,0,0,0,0,0,0,0,0,0,0,0,0,0,0,0,0,0,0,0,0,0,0,0,0,0,0,0,0,0,0,-3.5405,-3.5405,0,-3.5375,-3.5375,-3.5374,-3.527,-3.5268,-3.5265,-3.5263,-3.5234,-3.5235,-3.5237,0,0,0,0,0,0,0,0,0,0,0,0,0,-3.5377,-3.5378,-3.5405,-3.5405,-3.5405,-3.5375,-3.5375,-3.5374,-3.527,-3.5268,-3.5265,-3.5262,-3.5233,-3.5235,-3.5237,0,0,0,0,0,0,0,0,0,0,0,0,0,-3.5372,-3.5378,-3.5405,-3.5349,-3.5344,-3.5375,-3.5375,-3.5374,-3.5271,-3.5268,-3.5264,-3.5261,-3.5233,-3.5235,-3.5237,-3.5321,0,0,-3.5243,-3.5244,0,0,0,0,0,0,0,0,-3.5373,-3.5374,-3.5358,-3.5353,-3.5347,-3.5323,-3.5354,-3.5356,-3.5272,-3.5299,-3.5263,-3.5259,-3.5266,-3.5266,-3.5268,-3.5319,-3.5318,-3.5244,-3.5245,-3.5246,-3.5246,0,0,0,0,0,0,0,-3.5373,-3.5374,-3.5393,-3.5358,-3.5351,-3.5327,-3.5322,-3.5354,-3.5303,-3.5296,-3.5289,-3.5286,-3.5263,-3.5266,-3.5266,-3.5317,-3.5244,-3.5245,-3.5247,-3.5248,-3.5438,-3.5442,0,0,0,0,0,0,-3.5381,-3.5375,-3.5394,-3.5392,-3.5352,-3.533,-3.5325,-3.5334,-3.5302,-3.5294,-3.5289,-3.5282,-3.5264,-3.5264,-3.5265,-3.5361,-3.5246,-3.5248,-3.5249,-3.5434,-3.5439,-3.5443,0,0,0,0,0,0,-3.5381,-3.5384,-3.5395,-3.5382,-3.5381,-3.5334,-3.5345,-3.5335,-3.5338,-3.5297,-3.5288,-3.5301,-3.5261,-3.5262,-3.5308,-3.5358,-3.5249,-3.5251,-3.543,-3.5436,-3.5441,-3.5554,0,0,0,0,0,0,-3.5381,-3.5384,-3.5415,-3.5383,-3.5382,-3.5438,-3.5349,-3.5337,-3.5342,-3.5331,-3.5306,-3.5298,-3.5258,-3.5305,-3.531,-3.5359,-3.5252,-3.5425,-3.5432,-3.5439,-3.5545,-3.5563,-3.5577,0,0,0,0,0,-3.538,-3.5448,-3.5417,-3.5419,-3.5419,-3.5441,-3.5441,-3.5393,-3.5346,-3.5377,-3.5351,-3.5299,-3.5353,-3.5311,-3.5315,-3.5366,-3.5422,-3.543,-3.5439,-3.5538,-3.5559,-3.5577,0,0,0,0,0,0,-3.5486,-3.5442,-3.5407,-3.5467,-3.5459,-3.5424,-3.546,-3.5417,-3.5422,-3.5412,-3.5353,-3.5349,-3.5403,-3.5389,-3.5343,-3.5446,-3.5379,-3.5389,-3.5453,-3.5473,-3.5488,-3.549,-3.5254,0,0,0,0,0,-3.5516,-3.5537,-3.5498,-3.5554,-3.5552,-3.5508,-3.5515,-3.548,-3.5469,-3.5465,-3.5442,-3.5434,-3.5449,-3.546,-3.5472,-3.5544,-3.5537,-3.5581,-3.5597,-3.5611,-3.5619,-3.5658,-3.5677,-3.5471,-3.5471,-3.5471,0,0,-3.5579,-3.5558,-3.5574,-3.5575,-3.5564,-3.5588,-3.5505,-3.5533,-3.5551,-3.5469,-3.5511,-3.5495,-3.5482,-3.5542,-3.5567,-3.5532,-3.5675,-3.5622,-3.5633,-3.5634,-3.5668,-3.5688,-3.5705,-3.5477,-3.5476,-3.5475,0,0,-3.5704,-3.5691,-3.5736,-3.5728,-3.5713,-3.5683,-3.5695,-3.5667,-3.5653,-3.5694,-3.5634,-3.5655,-3.5682,-3.5676,-3.5677,-3.5805,-3.5757,-3.581,-3.5894,-3.5932,-3.5948,-3.5962,-3.6007,-3.6024,-3.582,-3.582,-3.582,0,-3.5784,-3.5816,-3.5765,-3.5798,-3.5801,-3.5729,-3.5776,-3.577,-3.5761,-3.5765,-3.5726,-3.576,-3.5746,-3.5804,-3.5836,-3.5839,-3.585,-3.5812,-3.5949,-3.5963,-3.5975,-3.6018,-3.6036,-3.5826,-3.5826,-3.5825,-3.5824,0,-3.5915,-3.5939,-3.5978,-3.5971,-3.5978,-3.6018,-3.5974,-3.5988,-3.5953,-3.5928,-3.5973,-3.5955,-3.5962,-3.5973,-3.5939,-3.6027,-3.6006,-3.596,-3.589,-3.6002,-3.6042,-3.6058,-3.5836,-3.5833,-3.5831,-3.583,0,0,-3.6103,-3.6069,-3.6084,-3.6081,-3.6061,-3.6079,-3.6117,-3.6124,-3.6138,-3.6135,-3.6165,-3.6192,-3.6149,-3.615,-3.6115,-3.6148,-3.6252,-3.6098,-3.6096,-3.6126,-3.6348,-3.6382,-3.6402,-3.6221,-3.6224,-3.6226,-3.6349,0,-3.6222,-3.6283,-3.624,-3.6309,-3.6331,-3.6265,-3.6298,-3.6291,-3.627,-3.6287,-3.6264,-3.6283,-3.6225,-3.6226,-3.6256,-3.6233,-3.6295,-3.6223,-3.6249,-3.6251,-3.6253,-3.6422,-3.6458,-3.6574,-3.6364,-3.6367,-3.6368,0,-3.6368,-3.6372,-3.6443,-3.6421,-3.6429,-3.6459,-3.6463,-3.648,-3.6471,-3.6454,-3.6457,-3.6414,-3.6451,-3.6384,-3.6435,-3.6387,-3.6396,-3.6387,-3.639,-3.6389,-3.6315,-3.6425,-3.661,-3.6627,-3.6392,-3.639,-3.6389,0,-3.6498,-3.6521,-3.6567,-3.6566,-3.6541,-3.6565,-3.6555,-3.6543,-3.6551,-3.6556,-3.656,-3.657,-3.6574,-3.6583,-3.6545,-3.65,-3.6601,-3.6531,-3.6587,-3.6589,-3.661,-3.6608,-3.6797,-3.6618,-3.6618,-3.6618,-3.6617,0,-3.6634,-3.668,-3.6625,-3.6653,-3.6704,-3.6655,-3.6707,-3.6691,-3.6681,-3.6706,-3.6651,-3.6675,-3.6624,-3.6644,-3.6614,-3.6661,-3.6664,-3.6651,-3.6643,-3.6655,-3.6657,-3.6659,-3.6649,-3.6622,-3.6621,-3.662,-3.6619,0,-3.6786,-3.6751,-3.6796,-3.677,-3.6765,-3.6804,-3.6781,-3.6807,-3.6784,-3.6816,-3.6821,-3.6784,-3.6805,-3.6769,-3.6785,-3.6765,-3.6831,-3.681,-3.6833,-3.6827,-3.6885,-3.688,-3.708,-3.7104,-3.6911,-3.6913,-3.6915,0,-3.6874,-3.6908,-3.6886,-3.6899,-3.6893,-3.6914,-3.6923,-3.6878,-3.6889,-3.6883,-3.691,-3.6926,-3.6936,-3.6974,-3.6949,-3.6962,-3.694,-3.701,-3.6942,-3.6954,-3.694,-3.6938,-3.6942,-3.7023,-3.7026,-3.7028,-3.7029,0,-3.7035,-3.7016,-3.703,-3.7039,-3.705,-3.7055,-3.7055,-3.7069,-3.7022,-3.7038,-3.7058,-3.7067,-3.7085,-3.7102,-3.7109,-3.7101,-3.7058,-3.7052,-3.7065,-3.7077,-3.7089,-3.7083,-3.687,-3.7046,-3.7045,-3.7043,-3.7042,-3.7042,-3.7156,-3.7184,-3.7174,-3.7191,-3.7188,-3.7191,-3.7214,-3.7194,-3.7211,-3.7221,-3.7194,-3.7222,-3.7215,-3.722,-3.7217,-3.7239,-3.7208,-3.7228,-3.7233,-3.7238,-3.7247,-3.7088,-3.724,-3.724,-3.7239,-3.7239,-3.7238,0,-3.7313,-3.7304,-3.7321,-3.7324,-3.7339,-3.7298,-3.7298,-3.7313,-3.7338,-3.7335,-3.7347,-3.7372,-3.739,-3.7368,-3.7382,-3.7403,-3.7384,-3.7409,-3.7405,-3.7404,-3.7274,-3.726,-3.7424,-3.7424,-3.7424,-3.7424,-3.7424,-3.7424,-3.7396,-3.7441,-3.7422,-3.7466,-3.7457,-3.7483,-3.7487,-3.749,-3.7487,-3.7517,-3.7532,-3.7518,-3.7508,-3.7521,-3.7536,-3.7529,-3.7536,-3.7567,-3.7554,-3.7432,-3.7413,-3.7396,-3.7383,-3.757,-3.757,-3.7682,-3.7683,-3.7684]},{"header":{"parameterUnit":"m.s-1","parameterCategory":1,"la1":30.2991,"la2":30.254,"lo1":-89.0895,"lo2":-89.0444,"dy":0.0017,"dx":0.0017,"nx":28,"ny":28,"refTime":"2025-02-09T03:00:00:Z","depth":0,"parameterNumber":3,"parameterNumberName":"V-component_of_WINDS"},"data":[0,0,0,0,0,0,0,0,0,0,0,0,0,0,0,0,0,0,0,0,0,0,0,0,0,0,0,0,0,0,0,0,0,0,0,0,0,0,0,0,0,0,0,0,0,0,0,0,0,0,0,0,0,0,0,0,0,0,0.343,0.343,0,0.3474,0.3474,0.3475,0.3467,0.3466,0.3465,0.3464,0.3513,0.3515,0.3517,0,0,0,0,0,0,0,0,0,0,0,0,0,0.3345,0.3346,0.343,0.343,0.3431,0.3474,0.3474,0.3475,0.3467,0.3466,0.3465,0.3464,0.3512,0.3515,0.3517,0,0,0,0,0,0,0,0,0,0,0,0,0,0.3384,0.3347,0.343,0.3432,0.3433,0.3474,0.3474,0.3475,0.3467,0.3466,0.3465,0.3463,0.3511,0.3514,0.3517,0.356,0,0,0.3527,0.3528,0,0,0,0,0,0,0,0,0.3382,0.3388,0.3431,0.3432,0.3433,0.3463,0.3462,0.3504,0.3467,0.3454,0.3464,0.3463,0.3498,0.3502,0.3513,0.3562,0.3564,0.3527,0.3529,0.353,0.3531,0,0,0,0,0,0,0,0.3379,0.3386,0.3447,0.3432,0.3433,0.3433,0.3437,0.347,0.3482,0.3455,0.3455,0.346,0.3498,0.351,0.3514,0.3565,0.3527,0.353,0.3531,0.3533,0.3656,0.3658,0,0,0,0,0,0,0.3375,0.3383,0.3446,0.3449,0.3404,0.3435,0.344,0.3455,0.3482,0.3485,0.3461,0.3459,0.3505,0.351,0.3515,0.357,0.353,0.3533,0.3535,0.3655,0.3657,0.3658,0,0,0,0,0,0,0.3373,0.3381,0.3444,0.3416,0.3424,0.3438,0.3455,0.3456,0.3468,0.3486,0.3488,0.347,0.3504,0.3511,0.355,0.3571,0.3534,0.3537,0.3653,0.3656,0.3658,0.3677,0,0,0,0,0,0,0.3371,0.338,0.3395,0.3416,0.3425,0.3476,0.3456,0.3458,0.3473,0.3471,0.3496,0.3498,0.3504,0.3545,0.3553,0.3575,0.354,0.3651,0.3654,0.3657,0.3674,0.3679,0.3684,0,0,0,0,0,0.3368,0.3399,0.3396,0.3403,0.3444,0.3477,0.3482,0.3487,0.3475,0.3491,0.3503,0.3498,0.3568,0.3549,0.3558,0.3581,0.365,0.3653,0.3657,0.3672,0.3678,0.3683,0,0,0,0,0,0,0.338,0.3401,0.3398,0.3436,0.3455,0.3475,0.3496,0.3493,0.3516,0.3514,0.352,0.3526,0.3566,0.3577,0.3556,0.3626,0.3607,0.3613,0.3616,0.3622,0.3627,0.3623,0.3542,0,0,0,0,0,0.3387,0.341,0.3428,0.346,0.347,0.3481,0.3496,0.3498,0.3518,0.3526,0.3541,0.3562,0.3589,0.3606,0.3632,0.3676,0.3683,0.3697,0.3701,0.3705,0.371,0.3737,0.3744,0.3669,0.3669,0.3669,0,0,0.3401,0.3416,0.343,0.3463,0.3478,0.3504,0.3488,0.3515,0.3536,0.3531,0.3568,0.358,0.3604,0.3647,0.3666,0.3657,0.3732,0.3709,0.3712,0.3715,0.3741,0.3749,0.3755,0.3671,0.3671,0.3671,0,0,0.3442,0.3454,0.3483,0.3499,0.3521,0.3529,0.3537,0.3558,0.3566,0.3604,0.3601,0.3627,0.3672,0.369,0.3705,0.3757,0.3754,0.3765,0.3789,0.3816,0.3822,0.3828,0.3848,0.3855,0.3769,0.3769,0.3769,0,0.3457,0.3495,0.3499,0.3528,0.3544,0.354,0.3572,0.3587,0.3617,0.3629,0.3619,0.3678,0.3694,0.3742,0.3755,0.3767,0.3777,0.3762,0.3821,0.3826,0.3831,0.3851,0.3858,0.3771,0.3771,0.377,0.377,0,0.3515,0.3541,0.3563,0.3591,0.361,0.364,0.3651,0.3669,0.3671,0.3681,0.3722,0.3741,0.3772,0.3783,0.3785,0.3833,0.3827,0.3819,0.3801,0.384,0.3858,0.3866,0.3773,0.3772,0.3772,0.3771,0,0,0.3561,0.3594,0.3602,0.3617,0.3643,0.3664,0.3696,0.3726,0.3743,0.3764,0.3793,0.3833,0.3827,0.3844,0.3848,0.3872,0.3915,0.3861,0.3862,0.3872,0.3972,0.3978,0.3987,0.3913,0.3914,0.3916,0.397,0,0.3605,0.3659,0.3665,0.3714,0.374,0.3739,0.3767,0.3788,0.3799,0.3825,0.3838,0.3867,0.3855,0.3866,0.3889,0.3904,0.3935,0.39,0.3942,0.3943,0.3936,0.3996,0.4002,0.4053,0.3978,0.3979,0.398,0,0.3663,0.3686,0.3738,0.3763,0.3775,0.3799,0.3829,0.3853,0.3877,0.3884,0.3905,0.3907,0.3943,0.3924,0.3975,0.3951,0.3969,0.3979,0.3981,0.3986,0.3964,0.4004,0.4069,0.4077,0.3991,0.399,0.3989,0,0.3694,0.3739,0.3776,0.3788,0.3818,0.3836,0.385,0.3873,0.3892,0.3919,0.3931,0.3962,0.3979,0.4004,0.4016,0.4,0.4067,0.4048,0.4076,0.4076,0.409,0.4089,0.416,0.41,0.4099,0.4099,0.4099,0,0.3743,0.3775,0.3791,0.3814,0.3851,0.3859,0.3896,0.391,0.3931,0.3959,0.396,0.3987,0.4,0.4029,0.4039,0.4081,0.4089,0.4097,0.41,0.4097,0.4097,0.4109,0.4107,0.4101,0.4101,0.4101,0.41,0,0.3783,0.3795,0.3836,0.3862,0.3869,0.3896,0.3919,0.3943,0.3955,0.399,0.3999,0.4018,0.4053,0.4067,0.411,0.4117,0.4166,0.4165,0.4157,0.4158,0.4186,0.4184,0.4269,0.4281,0.4211,0.4212,0.4212,0,0.3814,0.3838,0.3867,0.3885,0.39,0.3929,0.3948,0.3959,0.3979,0.4011,0.4032,0.4067,0.4095,0.4151,0.4171,0.4204,0.4205,0.4233,0.421,0.4209,0.4208,0.4207,0.4211,0.4237,0.4238,0.4238,0.4239,0,0.3867,0.3873,0.3899,0.393,0.3953,0.3977,0.4001,0.4016,0.4031,0.4055,0.409,0.4112,0.4157,0.4192,0.4228,0.4244,0.4246,0.4246,0.4255,0.4253,0.4248,0.4253,0.417,0.4244,0.4243,0.4243,0.4243,0.4242,0.3905,0.3928,0.3952,0.3983,0.4003,0.4026,0.405,0.4066,0.4095,0.4131,0.4137,0.4176,0.4204,0.4251,0.427,0.4302,0.4295,0.4307,0.431,0.4313,0.4316,0.4242,0.4308,0.4308,0.4308,0.4308,0.4308,0,0.396,0.3976,0.4005,0.4038,0.4064,0.4061,0.4089,0.4111,0.4144,0.417,0.4198,0.4241,0.4276,0.4299,0.4336,0.4358,0.4359,0.4367,0.4366,0.4371,0.4319,0.4309,0.4365,0.4365,0.4365,0.4365,0.4365,0.4365,0.3991,0.4031,0.404,0.4091,0.4107,0.4144,0.4161,0.4183,0.4204,0.4251,0.428,0.4295,0.4321,0.436,0.4393,0.4399,0.4414,0.4422,0.4428,0.438,0.4374,0.4368,0.4358,0.4425,0.4425,0.4477,0.4478,0.4478]}]]